�������l�o���
Date,Time,MP-1(��Sv/h),MP-2(��Sv/h),MP-3(��Sv/h),MP-4(��Sv/h),MP-5(��Sv/h),MP-6(��Sv/h),MP-7(��Sv/h),MP-8(��Sv/h),����,����(m/s),���J
2022/07/24,00:00,0.587,0.834,0.531,0.995,0.709,0.341,0.585,0.553,���k��,1.4,��
2022/07/24,00:10,0.587,0.832,0.531,0.996,0.709,0.340,0.585,0.554,���k��,1.7,��
2022/07/24,00:20,0.588,0.831,0.532,0.995,0.708,0.340,0.584,0.553,���k��,1.5,��
2022/07/24,00:30,0.586,0.832,0.532,0.993,0.709,0.340,0.585,0.553,���k��,2.0,��
2022/07/24,00:40,0.589,0.834,0.533,0.995,0.708,0.341,0.584,0.553,���k��,3.5,��
2022/07/24,00:50,0.588,0.831,0.533,0.993,0.710,0.339,0.585,0.553,���k��,3.8,��
2022/07/24,01:00,0.587,0.834,0.532,0.996,0.709,0.341,0.583,0.552,�k��,3.3,��
2022/07/24,01:10,0.587,0.832,0.532,0.997,0.708,0.339,0.585,0.552,�k��,5.4,��
2022/07/24,01:20,0.588,0.834,0.532,0.995,0.708,0.340,0.587,0.554,�k��,5.6,��
2022/07/24,01:30,0.587,0.834,0.531,0.999,0.709,0.342,0.587,0.553,�k��,5.7,��
2022/07/24,01:40,0.586,0.833,0.531,0.994,0.711,0.341,0.587,0.553,�k��,6.9,��
2022/07/24,01:50,0.587,0.834,0.532,0.995,0.709,0.341,0.586,0.552,�k�k��,5.0,��
2022/07/24,02:00,0.587,0.834,0.535,0.997,0.710,0.341,0.587,0.553,�k�k��,3.7,��
2022/07/24,02:10,0.587,0.835,0.532,0.994,0.709,0.341,0.586,0.552,�k�k��,4.1,��
2022/07/24,02:20,0.587,0.833,0.532,0.995,0.710,0.340,0.585,0.552,�k�k��,4.2,��
2022/07/24,02:30,0.587,0.833,0.532,0.997,0.711,0.340,0.586,0.553,�k��,5.0,��
2022/07/24,02:40,0.585,0.833,0.532,0.997,0.709,0.341,0.587,0.553,�k��,4.4,��
2022/07/24,02:50,0.586,0.832,0.531,0.996,0.708,0.341,0.585,0.554,�k��,4.6,��
2022/07/24,03:00,0.586,0.833,0.532,0.997,0.710,0.341,0.587,0.554,�k�k��,3.9,��
2022/07/24,03:10,0.587,0.831,0.531,0.996,0.710,0.341,0.585,0.553,�k�k��,4.0,��
2022/07/24,03:20,0.587,0.834,0.532,0.995,0.708,0.340,0.587,0.553,�k�k��,3.9,��
2022/07/24,03:30,0.587,0.833,0.533,0.996,0.710,0.339,0.586,0.553,�k�k��,5.2,��
2022/07/24,03:40,0.588,0.834,0.533,0.997,0.709,0.340,0.586,0.555,�k�k��,4.3,��
2022/07/24,03:50,0.588,0.833,0.533,0.998,0.708,0.341,0.584,0.554,�k��,4.5,��
2022/07/24,04:00,0.588,0.834,0.532,0.995,0.709,0.339,0.586,0.554,�k��,4.3,��
2022/07/24,04:10,0.588,0.833,0.532,0.996,0.710,0.339,0.586,0.553,�k��,3.1,��
2022/07/24,04:20,0.588,0.834,0.533,0.996,0.711,0.340,0.587,0.554,�k��,3.5,��
2022/07/24,04:30,0.587,0.833,0.531,0.996,0.709,0.339,0.586,0.553,�k��,2.5,��
2022/07/24,04:40,0.588,0.833,0.533,0.998,0.708,0.341,0.586,0.552,�k�k��,1.7,��
2022/07/24,04:50,0.587,0.835,0.532,0.998,0.709,0.339,0.587,0.554,-,CALM,��
2022/07/24,05:00,0.587,0.834,0.534,0.995,0.711,0.340,0.585,0.553,�k��,1.5,��
2022/07/24,05:10,0.587,0.834,0.532,0.997,0.711,0.339,0.585,0.554,�k��,1.2,��
2022/07/24,05:20,0.588,0.836,0.533,1.000,0.712,0.339,0.586,0.554,�k��,0.8,��
2022/07/24,05:30,0.587,0.835,0.532,0.995,0.712,0.341,0.588,0.553,���k��,0.8,��
2022/07/24,05:40,0.589,0.834,0.532,0.996,0.709,0.341,0.586,0.554,��쐼,0.6,��
2022/07/24,05:50,0.589,0.836,0.531,0.997,0.711,0.340,0.586,0.554,��,0.9,��
2022/07/24,06:00,0.587,0.835,0.532,0.996,0.711,0.341,0.586,0.556,��,0.6,��
2022/07/24,06:10,0.587,0.835,0.532,0.998,0.711,0.341,0.586,0.553,��쓌,0.9,��
2022/07/24,06:20,0.588,0.836,0.532,0.997,0.711,0.342,0.585,0.555,��,0.9,��
2022/07/24,06:30,0.587,0.837,0.532,0.997,0.709,0.340,0.585,0.554,��쓌,1.7,��
2022/07/24,06:40,0.587,0.833,0.533,0.996,0.711,0.341,0.586,0.553,��쓌,2.3,��
2022/07/24,06:50,0.586,0.833,0.531,0.996,0.711,0.341,0.585,0.554,�쓌,1.4,��
2022/07/24,07:00,0.588,0.832,0.532,0.996,0.710,0.339,0.586,0.554,�쓌,1.2,��
2022/07/24,07:10,0.589,0.836,0.532,0.997,0.710,0.340,0.587,0.553,�쓌,2.3,��
2022/07/24,07:20,0.586,0.833,0.531,0.996,0.711,0.340,0.587,0.554,��쓌,2.2,��
2022/07/24,07:30,0.589,0.835,0.533,0.998,0.711,0.341,0.586,0.555,��쓌,1.9,��
2022/07/24,07:40,0.587,0.835,0.532,0.997,0.710,0.341,0.586,0.553,�쓌,2.3,��
2022/07/24,07:50,0.586,0.834,0.532,0.997,0.710,0.341,0.586,0.554,��쓌,1.4,��
2022/07/24,08:00,0.586,0.832,0.533,0.996,0.712,0.340,0.587,0.553,��쓌,0.6,��
2022/07/24,08:10,0.587,0.835,0.532,0.997,0.710,0.342,0.587,0.553,�쓌,1.4,��
2022/07/24,08:20,0.586,0.834,0.533,0.998,0.711,0.340,0.587,0.553,�쓌,1.7,��
2022/07/24,08:30,0.588,0.834,0.531,0.996,0.710,0.339,0.588,0.553,�쓌,1.2,��
2022/07/24,08:40,0.586,0.834,0.533,0.998,0.712,0.339,0.587,0.553,�쓌,1.7,��
2022/07/24,08:50,0.587,0.835,0.531,0.999,0.713,0.340,0.586,0.552,��쓌,1.7,��
2022/07/24,09:00,0.589,0.838,0.533,0.997,0.712,0.341,0.586,0.552,�쓌,2.3,��
2022/07/24,09:10,0.589,0.837,0.532,0.996,0.713,0.341,0.587,0.552,�쓌,1.9,��
2022/07/24,09:20,0.589,0.834,0.533,0.996,0.714,0.339,0.587,0.553,��쓌,1.9,��
2022/07/24,09:30,0.588,0.835,0.533,0.998,0.713,0.341,0.587,0.553,���쓌,2.5,��
2022/07/24,09:40,0.589,0.837,0.533,0.999,0.712,0.340,0.586,0.551,���쓌,2.6,��
2022/07/24,09:50,0.589,0.837,0.534,0.997,0.714,0.341,0.586,0.551,���쓌,2.8,��
2022/07/24,10:00,0.588,0.839,0.533,0.998,0.713,0.339,0.587,0.552,���쓌,2.6,��
2022/07/24,10:10,0.589,0.837,0.534,0.998,0.711,0.340,0.585,0.553,��쓌,2.9,��
2022/07/24,10:20,0.588,0.837,0.530,0.998,0.710,0.340,0.587,0.552,�쓌,2.8,��
2022/07/24,10:30,0.589,0.835,0.532,0.999,0.712,0.340,0.587,0.551,�쓌,2.9,��
2022/07/24,10:40,0.588,0.838,0.533,0.998,0.712,0.341,0.589,0.552,�쓌,3.5,��
2022/07/24,10:50,0.590,0.837,0.532,1.000,0.712,0.341,0.587,0.552,���쓌,3.0,��
2022/07/24,11:00,0.589,0.836,0.533,1.002,0.713,0.341,0.588,0.554,���쓌,3.7,��
2022/07/24,11:10,0.589,0.837,0.532,0.999,0.712,0.341,0.589,0.553,���쓌,3.1,��
2022/07/24,11:20,0.590,0.837,0.533,0.997,0.714,0.341,0.589,0.553,�쓌,3.6,��
2022/07/24,11:30,0.590,0.835,0.534,0.996,0.714,0.340,0.590,0.552,�쓌,3.3,��
2022/07/24,11:40,0.591,0.840,0.533,1.000,0.715,0.342,0.589,0.553,�쓌,4.1,��
2022/07/24,11:50,0.590,0.839,0.534,0.998,0.715,0.341,0.590,0.553,�쓌,3.8,��
2022/07/24,12:00,0.589,0.839,0.532,0.997,0.713,0.341,0.589,0.553,�쓌,3.6,��
2022/07/24,12:10,0.589,0.838,0.534,1.000,0.716,0.341,0.589,0.554,�쓌,4.9,��
2022/07/24,12:20,0.590,0.839,0.534,0.997,0.714,0.339,0.590,0.554,���쓌,3.3,��
2022/07/24,12:30,0.592,0.839,0.532,0.998,0.714,0.341,0.588,0.554,���쓌,3.5,��
2022/07/24,12:40,0.591,0.841,0.533,0.998,0.713,0.343,0.588,0.555,�쓌,3.2,��
2022/07/24,12:50,0.593,0.840,0.534,1.000,0.716,0.340,0.587,0.555,���쓌,3.4,��
2022/07/24,13:00,0.592,0.841,0.533,1.001,0.716,0.348,0.589,0.554,���쓌,2.9,��
2022/07/24,13:10,0.591,0.842,0.534,0.999,0.717,0.342,0.589,0.554,�쓌,3.4,��
2022/07/24,13:20,0.593,0.841,0.534,1.000,0.716,0.341,0.589,0.554,�쓌,3.9,��
2022/07/24,13:30,0.591,0.841,0.535,1.002,0.716,0.342,0.589,0.553,���쓌,3.8,��
2022/07/24,13:40,0.593,0.841,0.535,1.001,0.716,0.342,0.589,0.555,���쓌,3.1,��
2022/07/24,13:50,0.594,0.841,0.536,1.002,0.717,0.343,0.589,0.554,�쓌,3.6,��
2022/07/24,14:00,0.592,0.842,0.534,1.001,0.719,0.341,0.590,0.554,�쓌,2.0,��
2022/07/24,14:10,0.593,0.842,0.534,1.000,0.716,0.341,0.590,0.554,�쓌,3.3,��
2022/07/24,14:20,0.592,0.842,0.536,1.002,0.717,0.342,0.589,0.553,�쓌,3.9,��
2022/07/24,14:30,0.593,0.843,0.535,1.001,0.719,0.343,0.590,0.556,�쓌,3.5,��
2022/07/24,14:40,0.593,0.843,0.535,1.002,0.719,0.342,0.589,0.555,�쓌,3.2,��
2022/07/24,14:50,0.593,0.841,0.536,1.001,0.718,0.343,0.588,0.556,�쓌,3.0,��
2022/07/24,15:00,0.593,0.842,0.534,1.003,0.717,0.341,0.590,0.555,�쓌,3.2,��
2022/07/24,15:10,0.593,0.841,0.535,1.004,0.717,0.342,0.589,0.555,���쓌,3.2,��
2022/07/24,15:20,0.593,0.841,0.534,1.004,0.718,0.342,0.589,0.554,�쓌,3.6,��
2022/07/24,15:30,0.594,0.843,0.535,1.002,0.716,0.344,0.590,0.555,���쓌,3.6,��
2022/07/24,15:40,0.594,0.842,0.535,1.005,0.717,0.342,0.589,0.554,���쓌,3.0,��
2022/07/24,15:50,0.593,0.844,0.535,1.004,0.719,0.341,0.588,0.553,���쓌,2.8,��
2022/07/24,16:00,0.593,0.843,0.535,1.004,0.719,0.343,0.588,0.554,�쓌,1.9,��
2022/07/24,16:10,0.594,0.842,0.535,1.006,0.718,0.343,0.589,0.553,�쓌,3.4,��
2022/07/24,16:20,0.593,0.841,0.533,1.005,0.717,0.341,0.587,0.553,���쓌,2.6,��
2022/07/24,16:30,0.593,0.842,0.535,1.003,0.717,0.342,0.587,0.554,�쓌,2.2,��
2022/07/24,16:40,0.594,0.844,0.533,1.004,0.717,0.342,0.588,0.554,�쓌,2.6,��
2022/07/24,16:50,0.592,0.844,0.535,1.003,0.720,0.342,0.589,0.554,���쓌,2.5,��
2022/07/24,17:00,0.593,0.842,0.535,1.004,0.718,0.342,0.589,0.555,���쓌,2.0,��
2022/07/24,17:10,0.591,0.842,0.533,1.004,0.718,0.341,0.588,0.555,�쓌,2.2,��
2022/07/24,17:20,0.593,0.843,0.533,1.004,0.716,0.340,0.587,0.554,�쓌,2.5,��
2022/07/24,17:30,0.593,0.843,0.536,1.005,0.719,0.341,0.588,0.554,�쓌,2.2,��
2022/07/24,17:40,0.592,0.843,0.535,1.004,0.719,0.342,0.587,0.554,��쓌,2.0,��
2022/07/24,17:50,0.592,0.843,0.535,1.003,0.720,0.340,0.586,0.556,��쐼,1.7,��
2022/07/24,18:00,0.594,0.843,0.535,1.006,0.719,0.341,0.586,0.553,��쓌,1.7,��
2022/07/24,18:10,0.592,0.843,0.536,1.005,0.717,0.341,0.587,0.554,���쓌,1.2,��
2022/07/24,18:20,0.593,0.842,0.536,1.003,0.717,0.341,0.587,0.554,��쓌,1.4,��
2022/07/24,18:30,0.593,0.842,0.536,1.005,0.721,0.341,0.586,0.554,��쓌,1.2,��
2022/07/24,18:40,0.593,0.843,0.534,1.003,0.721,0.341,0.588,0.554,�쓌,0.6,��
2022/07/24,18:50,0.592,0.844,0.535,1.004,0.722,0.343,0.588,0.555,��쓌,1.2,��
2022/07/24,19:00,0.593,0.846,0.536,1.004,0.720,0.342,0.587,0.555,�쓌,0.6,��
2022/07/24,19:10,0.593,0.844,0.536,1.005,0.719,0.343,0.590,0.554,��쓌,1.4,��
2022/07/24,19:20,0.593,0.843,0.537,1.004,0.719,0.344,0.587,0.554,��쓌,1.1,��
2022/07/24,19:30,0.594,0.845,0.538,1.006,0.720,0.342,0.586,0.554,��쓌,2.0,��
2022/07/24,19:40,0.593,0.843,0.536,1.006,0.719,0.343,0.587,0.554,��쓌,2.2,��
2022/07/24,19:50,0.595,0.845,0.536,1.005,0.722,0.342,0.587,0.555,��쐼,1.5,��
2022/07/24,20:00,0.593,0.845,0.537,1.008,0.720,0.342,0.588,0.554,��쐼,1.4,��
2022/07/24,20:10,0.593,0.844,0.537,1.008,0.721,0.342,0.585,0.554,��쐼,1.4,��
2022/07/24,20:20,0.593,0.846,0.536,1.007,0.721,0.343,0.587,0.553,��,0.9,��
2022/07/24,20:30,0.593,0.845,0.537,1.006,0.719,0.342,0.588,0.555,��쐼,0.6,��
2022/07/24,20:40,0.594,0.844,0.539,1.007,0.720,0.342,0.590,0.555,��,0.9,��
2022/07/24,20:50,0.595,0.842,0.535,1.007,0.721,0.342,0.588,0.554,��,1.4,��
2022/07/24,21:00,0.592,0.846,0.536,1.008,0.719,0.343,0.587,0.554,��쓌,2.6,��
2022/07/24,21:10,0.593,0.845,0.537,1.009,0.719,0.344,0.588,0.554,��쓌,3.4,��
2022/07/24,21:20,0.593,0.845,0.536,1.006,0.720,0.344,0.588,0.556,��,3.3,��
2022/07/24,21:30,0.594,0.847,0.538,1.006,0.719,0.342,0.587,0.555,��,2.0,��
2022/07/24,21:40,0.594,0.844,0.537,1.006,0.719,0.341,0.587,0.553,��쐼,1.7,��
2022/07/24,21:50,0.595,0.847,0.536,1.008,0.720,0.342,0.588,0.554,��,0.9,��
2022/07/24,22:00,0.594,0.846,0.536,1.006,0.720,0.341,0.587,0.556,��,1.2,��
2022/07/24,22:10,0.595,0.846,0.537,1.009,0.720,0.342,0.589,0.556,��,1.7,��
2022/07/24,22:20,0.593,0.846,0.538,1.009,0.721,0.341,0.587,0.556,��,2.0,��
2022/07/24,22:30,0.593,0.845,0.536,1.010,0.721,0.342,0.588,0.556,��,2.3,��
2022/07/24,22:40,0.594,0.848,0.536,1.007,0.722,0.342,0.587,0.554,��쓌,2.9,��
2022/07/24,22:50,0.593,0.846,0.537,1.009,0.719,0.342,0.587,0.556,��쓌,3.0,��
2022/07/24,23:00,0.592,0.845,0.538,1.008,0.721,0.343,0.588,0.555,��,1.9,��
2022/07/24,23:10,0.595,0.845,0.539,1.008,0.721,0.343,0.589,0.554,��,2.0,��
2022/07/24,23:20,0.594,0.845,0.536,1.007,0.719,0.343,0.588,0.556,��,2.9,��
2022/07/24,23:30,0.594,0.846,0.536,1.008,0.719,0.342,0.588,0.554,��쐼,3.0,��
2022/07/24,23:40,0.593,0.846,0.537,1.009,0.718,0.343,0.587,0.554,��,3.5,��
2022/07/24,23:50,0.594,0.846,0.538,1.007,0.722,0.343,0.588,0.553,��,4.1,��
